Location: Bratsk-Energetik
(56.3300°N, 101.7600°E)
Time: 05:24:52
(UTC+08:00)

ISS - Pass Details

Date: 20 July 2018
Orbit: 402 x 408 km, 51.6° (Epoch: 16 July)

Event Time Altitude Azimuth Distance (km) Brightness Sun altitude
Rises 23:34:56 0° 227° (SW) 2,317 -0.2 -10.0°
Reaches altitude 10° 23:37:16 10° 212° (SSW) 1,461 -1.3 -10.1°
Maximum altitude 23:39:54 23° 158° (SSE) 926 -2.6 -10.3°
Drops below altitude 10° 23:42:33 10° 105° (ESE) 1,467 -1.4 -10.4°
Sets 23:44:54 0° 90° (E) 2,331 -0.2 -10.5°
